Terminal Aerodrome Forecast
Issued by NWS Cleveland, OH

Home | Current Version | Previous Version | Text Only | Print | Product List | Glossary On
Versions: 1 2 3 4 5 6 7 8 9 10 11 12 13 14 15 16
000
FTUS41 KCLE 070737 AAA
TAFYNG
TAF AMD
KYNG 070737Z 0708/0806 19005KT 6SM BR SCT040 SCT080
      TEMPO 0708/0712 3SM BR
     FM071300 20010KT P6SM SCT030 BKN250
      TEMPO 0713/0716 BKN030 BKN250
     FM071600 21010G20KT P6SM BKN035 OVC200
     FM071900 21010G20KT P6SM VCSH BKN035 OVC060
     FM072200 23015KT P6SM -SHRA VCTS OVC035CB
     FM080300 26007KT 3SM -SHRA BR OVC007=

USA.gov is the U.S. government's official web portal to all federal, state and local government web resources and services.